"Pseudo-MPEC" for P125ucI

Created 2025 Jan 22 23:31:12 UT using Find_Orb

Click here for an explanation of pseudo-MPECs

 
 Astrometry: 
     P125ucI* C2025 01 07.47137209 07 11.694+39 37 55.09   ~193V 22.12wXNEOCPF51
     P125ucI  C2025 01 07.48252209 07 10.976+39 38 05.79   ~193V 21.85wXNEOCPF51
     P125ucI  C2025 01 07.50493909 07 09.536+39 38 27.34   ~193V 22.17wXNEOCPF51

Station data:
(F51) Pan-STARRS 1, Haleakala  (N20.707234 W156.255910)  US/Hawaii.
   Observers J. Bulger, T. Lowe, A. Schultz, M. Willman. Measurers K.
   Chambers, S. Chastel, T. de Boer, L. Denneau, J. Fairlamb, H. Flewelling,
   M. Huber, C.-C. Lin, E. Magnier, Y. Ramanjooloo, R. Wainscoat, R. Weryk.
   1.8-m Ritchey-Chrétien + CCD.

Orbital elements:  P125ucI
   Perihelion 2025 Aug 20.49226 +/- 284 TT = 11:48:50 (JD 2460907.99226)
Epoch 2025 Jan  7.0 TT = JDT 2460682.5   Earth MOID: 0.0190      AutoNEOCP
M 291.38610971 +/- 60               (J2000 ecliptic)
n   0.30428490 +/- 0.237            Peri.  173.32194 +/- 90
a   2.18918488 +/- 1.14             Node    77.91765 +/- 56
e   0.5461209 +/- 0.262             Incl.   20.07528 +/- 30
P   3.23909                H 18.47  G  0.15   U 11.8  SR
q 0.99362506 +/- 0.993    Q 3.38474469 +/- 35.9
From 3 observations 2025 Jan. 7 (48.3 min); mean residual 0".01
Residuals in arcseconds: 
250107 F51  .01+  .01+    250107 F51  .01-  .02-    250107 F51  .00   .01+    

Ephemerides (geocentric):
Date (UTC) HH   RA             Dec           delta  r     elong  mag " sig PA
---- --------  ------------   ------------  ------ ------ -----  --- --------
2025 01 23 00  08 46 01.733   +43 37 27.61  1.3603 2.2918 155.3 21.6  30d 122
2025 01 23 01  08 45 57.546   +43 38 02.97  1.3601 2.2915 155.3 21.6  30d 122
2025 01 23 02  08 45 53.356   +43 38 38.30  1.3598 2.2913 155.3 21.6  30d 122
2025 01 23 03  08 45 49.163   +43 39 13.59  1.3596 2.2910 155.3 21.6  30d 122
2025 01 23 04  08 45 44.966   +43 39 48.87  1.3594 2.2908 155.3 21.6  30d 122
2025 01 23 05  08 45 40.766   +43 40 24.11  1.3592 2.2905 155.3 21.6  30d 122
2025 01 23 06  08 45 36.562   +43 40 59.32  1.3589 2.2903 155.3 21.6  30d 122
2025 01 23 07  08 45 32.355   +43 41 34.51  1.3587 2.2900 155.3 21.6  30d 121
2025 01 23 08  08 45 28.144   +43 42 09.67  1.3585 2.2898 155.2 21.6  30d 121
2025 01 23 09  08 45 23.930   +43 42 44.80  1.3583 2.2895 155.2 21.6  30d 121
2025 01 23 10  08 45 19.712   +43 43 19.90  1.3581 2.2893 155.2 21.6  30d 121
2025 01 23 11  08 45 15.492   +43 43 54.97  1.3578 2.2890 155.2 21.6  30d 121
2025 01 23 12  08 45 11.267   +43 44 30.02  1.3576 2.2887 155.2 21.6  30d 121
2025 01 23 13  08 45 07.039   +43 45 05.03  1.3574 2.2885 155.2 21.6  30d 121
2025 01 23 14  08 45 02.808   +43 45 40.02  1.3572 2.2882 155.2 21.6  30d 121
2025 01 23 15  08 44 58.574   +43 46 14.98  1.3570 2.2880 155.2 21.6  30d 121
2025 01 23 16  08 44 54.336   +43 46 49.91  1.3567 2.2877 155.2 21.6  30d 121
2025 01 23 17  08 44 50.094   +43 47 24.81  1.3565 2.2875 155.2 21.6  30d 121
2025 01 23 18  08 44 45.849   +43 47 59.68  1.3563 2.2872 155.1 21.6  30d 121
2025 01 23 19  08 44 41.601   +43 48 34.53  1.3561 2.2870 155.1 21.6  30d 121
2025 01 23 20  08 44 37.350   +43 49 09.34  1.3559 2.2867 155.1 21.6  30d 121
2025 01 23 21  08 44 33.095   +43 49 44.12  1.3557 2.2865 155.1 21.6  30d 121
2025 01 23 22  08 44 28.837   +43 50 18.88  1.3554 2.2862 155.1 21.6  30d 121
2025 01 23 23  08 44 24.576   +43 50 53.60  1.3552 2.2860 155.1 21.6  30d 120
2025 01 24 00  08 44 20.311   +43 51 28.30  1.3550 2.2857 155.1 21.6  30d 120
2025 01 24 01  08 44 16.043   +43 52 02.96  1.3548 2.2855 155.1 21.6  30d 120
2025 01 24 02  08 44 11.772   +43 52 37.60  1.3546 2.2852 155.1 21.6  30d 120
2025 01 24 03  08 44 07.497   +43 53 12.21  1.3544 2.2850 155.0 21.6  30d 120
2025 01 24 04  08 44 03.219   +43 53 46.78  1.3542 2.2847 155.0 21.6  30d 120
2025 01 24 05  08 43 58.938   +43 54 21.33  1.3540 2.2845 155.0 21.6  31d 120
2025 01 24 06  08 43 54.653   +43 54 55.85  1.3537 2.2842 155.0 21.6  31d 120
2025 01 24 07  08 43 50.366   +43 55 30.33  1.3535 2.2840 155.0 21.6  31d 120
2025 01 24 08  08 43 46.075   +43 56 04.79  1.3533 2.2837 155.0 21.6  31d 120
2025 01 24 09  08 43 41.780   +43 56 39.21  1.3531 2.2834 155.0 21.6  31d 120
2025 01 24 10  08 43 37.483   +43 57 13.61  1.3529 2.2832 155.0 21.6  31d 120
2025 01 24 11  08 43 33.182   +43 57 47.98  1.3527 2.2829 155.0 21.6  31d 120
2025 01 24 12  08 43 28.878   +43 58 22.31  1.3525 2.2827 154.9 21.6  31d 120
2025 01 24 13  08 43 24.571   +43 58 56.61  1.3523 2.2824 154.9 21.6  31d 120
2025 01 24 14  08 43 20.261   +43 59 30.89  1.3521 2.2822 154.9 21.6  31d 120
2025 01 24 15  08 43 15.947   +44 00 05.13  1.3519 2.2819 154.9 21.6  31d 120
2025 01 24 16  08 43 11.631   +44 00 39.34  1.3517 2.2817 154.9 21.6  31d 120
2025 01 24 17  08 43 07.311   +44 01 13.52  1.3515 2.2814 154.9 21.6  31d 120
2025 01 24 18  08 43 02.988   +44 01 47.67  1.3512 2.2812 154.9 21.6  31d 120
2025 01 24 19  08 42 58.662   +44 02 21.79  1.3510 2.2809 154.9 21.6  31d 120
2025 01 24 20  08 42 54.332   +44 02 55.88  1.3508 2.2807 154.8 21.6  31d 120
2025 01 24 21  08 42 50.000   +44 03 29.94  1.3506 2.2804 154.8 21.6  31d 121
2025 01 24 22  08 42 45.664   +44 04 03.96  1.3504 2.2802 154.8 21.6  31d 121
2025 01 24 23  08 42 41.326   +44 04 37.95  1.3502 2.2799 154.8 21.6  31d 121